CGL791 LKTB-OOMS

Flight info

Callsign CGL791
Flight time N/A
Altitude 39000
Route ODNEM A4 NIT/N0478F370 DCT ERGOM DCT ABONY DCT BUDOP DCT RONBU/N0472F390 DCT ARTAT UP975 ERGUN UL124 BONAM L319 DASDO L223 SIR/N0500F350 L223 TARDI N629 MUSUK
Aircraft A345/H-SDE2E3FGHIJ3J4J5M1RWXY/LB1D1

Departure

Time N/A
Airport Brno-Tuřany Airport (LKTB)

Arrival

Time 2026-04-29 14:34
Airport Muscat International Airport (OOMS)
Time Latitude Longitude Altitude Speed Heading
2026-04-29 09:02 48.75171 17.32932 18825 ft 393 kts 133°
2026-04-29 09:02 48.73292 17.35914 19426 ft 397 kts 133°
2026-04-29 09:02 48.71382 17.38945 20014 ft 400 kts 133°
2026-04-29 09:02 48.69447 17.42013 20587 ft 404 kts 133°
2026-04-29 09:03 48.67505 17.45083 21142 ft 407 kts 133°
2026-04-29 09:03 48.65531 17.48196 21687 ft 410 kts 133°
2026-04-29 09:03 48.63562 17.51298 22212 ft 413 kts 133°
2026-04-29 09:03 48.61563 17.54449 22726 ft 417 kts 133°
2026-04-29 09:04 48.59531 17.57655 23231 ft 420 kts 133°
2026-04-29 09:04 48.57509 17.60825 23714 ft 423 kts 133°
2026-04-29 09:04 48.55454 17.64035 24188 ft 426 kts 133°
2026-04-29 09:04 48.53382 17.67242 24646 ft 429 kts 135°
2026-04-29 09:05 48.51260 17.70498 25097 ft 432 kts 134°
2026-04-29 09:05 48.49164 17.73743 25530 ft 435 kts 134°
2026-04-29 09:05 48.47061 17.77012 25952 ft 438 kts 134°
2026-04-29 09:05 48.44936 17.80321 26366 ft 440 kts 134°
2026-04-29 09:06 48.42793 17.83658 26771 ft 443 kts 134°
2026-04-29 09:06 48.40640 17.87013 27166 ft 446 kts 134°
2026-04-29 09:06 48.38497 17.90351 27547 ft 448 kts 134°
2026-04-29 09:06 48.36311 17.93758 27924 ft 451 kts 134°
2026-04-29 09:07 48.34155 17.97117 28284 ft 453 kts 134°
2026-04-29 09:07 48.31947 18.00557 28642 ft 456 kts 134°
2026-04-29 09:07 48.29739 18.03991 28988 ft 458 kts 134°
2026-04-29 09:07 48.27456 18.07349 29325 ft 461 kts 136°
2026-04-29 09:08 48.25114 18.10694 29657 ft 463 kts 136°
2026-04-29 09:08 48.22788 18.13997 29974 ft 465 kts 136°
2026-04-29 09:08 48.20399 18.17382 30291 ft 468 kts 136°
2026-04-29 09:08 48.18032 18.20735 30595 ft 470 kts 136°
2026-04-29 09:09 48.15676 18.24070 30890 ft 472 kts 136°
2026-04-29 09:09 48.13274 18.27470 31183 ft 474 kts 136°
2026-04-29 09:09 48.10863 18.30883 31470 ft 476 kts 136°
2026-04-29 09:09 48.08482 18.34254 31745 ft 478 kts 136°
2026-04-29 09:10 48.06056 18.37688 32018 ft 480 kts 136°
2026-04-29 09:10 48.03627 18.41126 32313 ft 481 kts 136°
2026-04-29 09:10 48.01214 18.44541 32690 ft 480 kts 136°
2026-04-29 09:10 47.98801 18.47956 33057 ft 479 kts 136°
2026-04-29 09:11 47.96379 18.51382 33402 ft 479 kts 136°
2026-04-29 09:11 47.93943 18.54829 33735 ft 478 kts 136°
2026-04-29 09:11 47.91553 18.58210 34052 ft 477 kts 136°
2026-04-29 09:11 47.89129 18.61636 34360 ft 477 kts 136°
2026-04-29 09:12 47.86757 18.64976 34649 ft 476 kts 136°
2026-04-29 09:12 47.84365 18.68311 34928 ft 475 kts 137°
2026-04-29 09:12 47.81969 18.71689 35197 ft 475 kts 135°
2026-04-29 09:12 47.79895 18.75525 35414 ft 474 kts 123°
2026-04-29 09:13 47.78122 18.79623 35654 ft 474 kts 122°
2026-04-29 09:13 47.76367 18.83724 35896 ft 473 kts 122°
2026-04-29 09:13 47.74593 18.87852 36128 ft 473 kts 123°
2026-04-29 09:13 47.72825 18.91958 36334 ft 473 kts 122°
2026-04-29 09:14 47.71063 18.96048 36526 ft 473 kts 122°
2026-04-29 09:14 47.69315 19.00103 36709 ft 473 kts 122°
2026-04-29 09:14 47.67533 19.04236 36889 ft 473 kts 122°
2026-04-29 09:14 47.65755 19.08362 37061 ft 473 kts 122°
2026-04-29 09:15 47.64004 19.12423 37225 ft 473 kts 122°
2026-04-29 09:15 47.62235 19.16526 37385 ft 473 kts 122°
2026-04-29 09:15 47.60450 19.20666 37539 ft 473 kts 122°
2026-04-29 09:15 47.58692 19.24744 37685 ft 473 kts 122°
2026-04-29 09:16 47.56921 19.28851 37826 ft 473 kts 122°
2026-04-29 09:16 47.55141 19.32980 37963 ft 473 kts 122°
2026-04-29 09:16 47.53389 19.37045 38093 ft 473 kts 122°
2026-04-29 09:16 47.51613 19.41163 38218 ft 473 kts 122°
2026-04-29 09:17 47.49851 19.45250 38338 ft 473 kts 122°
2026-04-29 09:17 47.48082 19.49352 38454 ft 473 kts 122°
2026-04-29 09:17 47.46320 19.53439 38564 ft 473 kts 122°
2026-04-29 09:17 47.44558 19.57524 38671 ft 473 kts 122°
2026-04-29 09:18 47.42771 19.61667 38773 ft 473 kts 122°
2026-04-29 09:18 47.39220 19.69827 38964 ft 473 kts 123°
2026-04-29 09:19 47.35673 19.77998 38998 ft 473 kts 122°
2026-04-29 09:19 47.32149 19.86166 39000 ft 473 kts 122°
2026-04-29 09:20 47.28629 19.94333 39000 ft 473 kts 122°
2026-04-29 09:20 47.25291 20.02689 39001 ft 473 kts 119°
2026-04-29 09:21 47.22066 20.11144 39000 ft 473 kts 119°
2026-04-29 09:21 47.18854 20.19515 39000 ft 473 kts 119°
2026-04-29 09:22 47.15609 20.27962 39000 ft 473 kts 119°
2026-04-29 09:22 47.12376 20.36380 39000 ft 473 kts 119°
2026-04-29 09:23 47.09134 20.44819 39000 ft 473 kts 119°
2026-04-29 09:23 47.05905 20.53224 39000 ft 473 kts 119°
2026-04-29 09:24 47.02681 20.61617 39000 ft 473 kts 119°
2026-04-29 09:24 46.99432 20.69989 39000 ft 473 kts 120°
2026-04-29 09:25 46.96202 20.78324 39000 ft 473 kts 120°
2026-04-29 09:25 46.92979 20.86705 39000 ft 473 kts 119°
2026-04-29 09:26 46.89758 20.95088 39000 ft 473 kts 119°
2026-04-29 09:26 46.86524 21.03470 39000 ft 473 kts 119°
2026-04-29 09:27 46.83294 21.11869 39000 ft 473 kts 119°
2026-04-29 09:27 46.80076 21.20244 39000 ft 473 kts 119°
2026-04-29 09:28 46.76857 21.28623 39000 ft 473 kts 119°
2026-04-29 09:28 46.73651 21.36961 39000 ft 473 kts 119°
2026-04-29 09:29 46.70436 21.45319 39000 ft 473 kts 119°
2026-04-29 09:29 46.64981 21.57307 39001 ft 473 kts 126°
2026-04-29 09:30 46.61023 21.64895 39000 ft 473 kts 127°
2026-04-29 09:30 46.56999 21.72451 39000 ft 473 kts 128°
2026-04-29 09:31 46.52988 21.80037 39000 ft 473 kts 128°
2026-04-29 09:31 46.49002 21.87600 39000 ft 473 kts 127°
2026-04-29 09:32 46.45030 21.95141 39000 ft 473 kts 127°
2026-04-29 09:32 46.41037 22.02720 39000 ft 473 kts 127°
2026-04-29 09:33 46.37033 22.10322 39000 ft 473 kts 127°
2026-04-29 09:33 46.33070 22.17845 39000 ft 473 kts 127°
2026-04-29 09:34 46.29082 22.25416 39000 ft 473 kts 127°
2026-04-29 09:34 46.25102 22.32972 39000 ft 473 kts 127°
2026-04-29 09:35 46.21098 22.40573 39000 ft 473 kts 127°
2026-04-29 09:35 46.17121 22.48124 39000 ft 473 kts 127°
2026-04-29 09:36 46.13153 22.55657 39000 ft 473 kts 127°
2026-04-29 09:36 46.09178 22.63202 39000 ft 473 kts 127°
2026-04-29 09:37 46.05177 22.70719 39000 ft 473 kts 128°
2026-04-29 09:37 46.01215 22.78195 39000 ft 473 kts 127°
2026-04-29 09:38 45.97222 22.85768 39000 ft 473 kts 127°
2026-04-29 09:38 45.93252 22.93304 39000 ft 473 kts 127°
2026-04-29 09:39 45.89299 23.00806 39000 ft 473 kts 127°
2026-04-29 09:39 45.85317 23.08336 39000 ft 473 kts 127°
2026-04-29 09:40 45.81356 23.15850 39000 ft 473 kts 127°
2026-04-29 09:40 45.77395 23.23368 39000 ft 473 kts 127°
2026-04-29 09:41 45.73420 23.30913 39000 ft 473 kts 127°
2026-04-29 09:41 45.69492 23.38371 39000 ft 473 kts 127°
2026-04-29 09:42 45.65506 23.45938 39000 ft 473 kts 127°
2026-04-29 09:42 45.61543 23.53461 39000 ft 473 kts 127°
2026-04-29 09:43 45.57597 23.60952 39000 ft 473 kts 126°
2026-04-29 09:43 45.53646 23.68409 39000 ft 473 kts 128°
2026-04-29 09:44 45.49685 23.75857 39000 ft 473 kts 127°
2026-04-29 09:44 45.45725 23.83362 39000 ft 473 kts 127°
2026-04-29 09:45 45.41780 23.90849 39000 ft 473 kts 127°
2026-04-29 09:45 45.37864 23.98283 39000 ft 473 kts 127°
2026-04-29 09:46 45.33905 24.05800 39000 ft 473 kts 127°
2026-04-29 09:46 45.29963 24.13282 39000 ft 473 kts 127°
2026-04-29 09:47 45.26051 24.20710 39000 ft 473 kts 127°
2026-04-29 09:47 45.22128 24.28156 39000 ft 473 kts 127°
2026-04-29 09:48 45.18185 24.35641 39000 ft 473 kts 126°
2026-04-29 09:48 45.14276 24.43062 39000 ft 473 kts 126°
2026-04-29 09:49 45.10341 24.50532 39000 ft 473 kts 126°
2026-04-29 09:49 45.06404 24.58006 39000 ft 473 kts 126°
2026-04-29 09:50 45.02466 24.65483 39000 ft 473 kts 127°
2026-04-29 09:50 44.98512 24.72889 39000 ft 473 kts 127°
2026-04-29 09:51 44.94588 24.80313 39000 ft 473 kts 127°
2026-04-29 09:51 44.90647 24.87790 39000 ft 473 kts 127°
2026-04-29 09:52 44.86722 24.95218 39000 ft 473 kts 127°
2026-04-29 09:52 44.82804 25.02645 39000 ft 473 kts 127°
2026-04-29 09:53 44.78892 25.10069 39000 ft 473 kts 126°
2026-04-29 09:53 44.74962 25.17531 39000 ft 473 kts 126°
2026-04-29 09:54 44.71050 25.24956 39000 ft 473 kts 126°
2026-04-29 09:54 44.67135 25.32389 39000 ft 473 kts 126°
2026-04-29 09:55 44.63228 25.39806 39000 ft 473 kts 126°
2026-04-29 09:55 44.59311 25.47240 39000 ft 473 kts 126°
2026-04-29 09:56 44.55401 25.54663 39000 ft 473 kts 126°
2026-04-29 09:56 44.51529 25.62012 39000 ft 473 kts 126°
2026-04-29 09:57 44.47582 25.69444 39000 ft 473 kts 127°
2026-04-29 09:57 44.43672 25.76815 39000 ft 473 kts 127°
2026-04-29 09:58 44.39771 25.84212 39000 ft 473 kts 126°
2026-04-29 09:58 44.35860 25.91636 39000 ft 473 kts 126°
2026-04-29 09:59 44.31965 25.99029 39000 ft 473 kts 126°
2026-04-29 09:59 44.28066 26.06430 39000 ft 473 kts 126°
2026-04-29 10:00 44.24183 26.13801 39000 ft 473 kts 126°
2026-04-29 10:00 44.20277 26.21213 39000 ft 473 kts 126°
2026-04-29 10:01 44.16395 26.28581 39000 ft 473 kts 126°
2026-04-29 10:01 44.12513 26.35947 39000 ft 473 kts 126°
2026-04-29 10:02 44.08614 26.43338 39000 ft 473 kts 126°
2026-04-29 10:02 44.04733 26.50735 39000 ft 473 kts 125°
2026-04-29 10:03 44.00872 26.58117 39000 ft 473 kts 126°
2026-04-29 10:03 43.96949 26.65425 39000 ft 473 kts 127°
2026-04-29 10:04 43.92981 26.72689 39000 ft 473 kts 127°
2026-04-29 10:04 43.89039 26.79965 39000 ft 473 kts 127°
2026-04-29 10:05 43.85094 26.87245 39000 ft 473 kts 127°
2026-04-29 10:05 43.81130 26.94584 39000 ft 473 kts 127°
2026-04-29 10:06 43.77198 27.01868 39000 ft 473 kts 127°
2026-04-29 10:06 43.73265 27.09155 39000 ft 473 kts 127°
2026-04-29 10:07 43.69331 27.16444 39000 ft 473 kts 127°
2026-04-29 10:07 43.65399 27.23729 39000 ft 473 kts 126°
2026-04-29 10:08 43.61450 27.31046 39000 ft 473 kts 126°
2026-04-29 10:08 43.57528 27.38312 39000 ft 473 kts 126°
2026-04-29 10:09 43.53582 27.45623 39000 ft 473 kts 126°
2026-04-29 10:09 43.49674 27.52864 39000 ft 473 kts 126°
2026-04-29 10:10 43.45752 27.60132 39000 ft 473 kts 126°
2026-04-29 10:10 43.41823 27.67388 39000 ft 473 kts 127°
2026-04-29 10:11 43.37870 27.74631 39000 ft 473 kts 127°
2026-04-29 10:11 43.33947 27.81885 39000 ft 473 kts 127°
2026-04-29 10:12 43.30025 27.89149 39000 ft 473 kts 127°
2026-04-29 10:12 43.26121 27.96383 39000 ft 473 kts 127°
2026-04-29 10:13 43.22209 28.03631 39000 ft 473 kts 126°
2026-04-29 10:13 43.18293 28.10886 39000 ft 473 kts 126°
2026-04-29 10:14 43.14390 28.18118 39000 ft 473 kts 126°
2026-04-29 10:14 43.10484 28.25355 39000 ft 473 kts 126°
2026-04-29 10:15 43.06580 28.32587 39000 ft 473 kts 126°
2026-04-29 10:15 43.02669 28.39835 39000 ft 473 kts 126°
2026-04-29 10:16 42.99449 28.45800 39000 ft 473 kts 126°
2026-04-29 10:16 42.94883 28.54260 39000 ft 473 kts 126°
2026-04-29 10:17 42.91003 28.61448 39000 ft 473 kts 126°
2026-04-29 10:17 42.87074 28.68660 39000 ft 473 kts 127°
2026-04-29 10:18 42.83152 28.75857 39000 ft 473 kts 127°
2026-04-29 10:18 42.79259 28.83059 39000 ft 473 kts 126°
2026-04-29 10:19 42.75369 28.90264 39000 ft 473 kts 126°
2026-04-29 10:19 42.71473 28.97483 39000 ft 473 kts 126°
2026-04-29 10:20 42.67576 29.04704 39000 ft 473 kts 126°
2026-04-29 10:20 42.63698 29.11887 39000 ft 473 kts 126°
2026-04-29 10:21 42.59813 29.19084 39000 ft 473 kts 126°
2026-04-29 10:21 42.55944 29.26251 39000 ft 473 kts 126°
2026-04-29 10:22 42.52057 29.33453 39000 ft 473 kts 126°
2026-04-29 10:22 42.48168 29.40655 39000 ft 473 kts 126°
2026-04-29 10:23 42.44276 29.47863 39000 ft 473 kts 126°
2026-04-29 10:23 42.40398 29.55039 39000 ft 473 kts 126°
2026-04-29 10:24 42.36681 29.62292 39008 ft 473 kts 115°
2026-04-29 10:24 42.34315 29.70599 39002 ft 473 kts 110°
2026-04-29 10:25 42.32123 29.78967 39000 ft 473 kts 109°
2026-04-29 10:25 42.29942 29.87360 39000 ft 473 kts 109°
2026-04-29 10:26 42.27764 29.95752 39000 ft 473 kts 109°
2026-04-29 10:26 42.25601 30.04086 39000 ft 473 kts 109°
2026-04-29 10:27 42.22336 30.16667 39000 ft 473 kts 109°
2026-04-29 10:28 42.20164 30.25032 39000 ft 473 kts 109°
2026-04-29 10:28 42.18000 30.33373 39000 ft 473 kts 109°
2026-04-29 10:29 42.15824 30.41754 39000 ft 473 kts 109°
2026-04-29 10:29 42.13664 30.50077 39000 ft 473 kts 109°
2026-04-29 10:30 42.11492 30.58442 39000 ft 473 kts 109°
2026-04-29 10:30 42.09314 30.66811 39000 ft 473 kts 110°
2026-04-29 10:31 42.07118 30.75113 39000 ft 473 kts 109°
2026-04-29 10:31 42.04946 30.83463 39000 ft 473 kts 109°
2026-04-29 10:32 42.02774 30.91826 39000 ft 473 kts 109°
2026-04-29 10:32 42.00599 31.00199 39000 ft 473 kts 109°
2026-04-29 10:33 41.98405 31.08476 39000 ft 473 kts 110°
2026-04-29 10:33 41.96160 31.16812 39000 ft 473 kts 110°
2026-04-29 10:34 41.93924 31.25095 39000 ft 473 kts 110°
2026-04-29 10:34 41.91677 31.33421 39000 ft 473 kts 110°
2026-04-29 10:35 41.89442 31.41686 39000 ft 473 kts 110°
2026-04-29 10:35 41.87193 31.49967 39000 ft 473 kts 109°
2026-04-29 10:36 41.84935 31.58314 39000 ft 473 kts 109°
2026-04-29 10:36 41.82686 31.66593 39000 ft 473 kts 110°
2026-04-29 10:37 41.80390 31.74855 39000 ft 473 kts 110°
2026-04-29 10:37 41.78114 31.83072 39000 ft 473 kts 110°
2026-04-29 10:38 41.75818 31.91356 39000 ft 473 kts 110°
2026-04-29 10:38 41.73522 31.99636 39000 ft 473 kts 110°
2026-04-29 10:39 41.71246 32.07846 39000 ft 473 kts 110°
2026-04-29 10:39 41.68956 32.16092 39000 ft 473 kts 110°
2026-04-29 10:40 41.66649 32.24356 39000 ft 473 kts 110°
2026-04-29 10:40 41.64349 32.32591 39000 ft 473 kts 110°
2026-04-29 10:41 41.62046 32.40775 39000 ft 473 kts 110°
2026-04-29 10:41 41.59709 32.49024 39000 ft 473 kts 110°
2026-04-29 10:42 41.57386 32.57247 39000 ft 473 kts 110°
2026-04-29 10:42 41.55054 32.65422 39000 ft 473 kts 111°
2026-04-29 10:43 41.52668 32.73628 39000 ft 473 kts 111°
2026-04-29 10:43 41.50320 32.81822 39000 ft 473 kts 111°
2026-04-29 10:44 41.47981 32.90007 39000 ft 473 kts 111°
2026-04-29 10:44 41.45629 32.98228 39000 ft 473 kts 112°
2026-04-29 10:45 41.42583 33.05959 39002 ft 473 kts 119°
2026-04-29 10:45 41.39371 33.13657 39000 ft 473 kts 119°
2026-04-29 10:46 41.36189 33.21312 39000 ft 473 kts 119°
2026-04-29 10:46 41.33041 33.29063 39000 ft 473 kts 118°
2026-04-29 10:47 41.29953 33.36723 39000 ft 473 kts 118°
2026-04-29 10:47 41.26866 33.44510 39000 ft 473 kts 117°
2026-04-29 10:48 41.23775 33.52213 39000 ft 473 kts 118°
2026-04-29 10:48 41.20678 33.59906 39000 ft 473 kts 118°
2026-04-29 10:49 41.17551 33.67636 39000 ft 473 kts 119°
2026-04-29 10:49 41.14426 33.75298 39000 ft 473 kts 118°
2026-04-29 10:50 41.11322 33.82986 39000 ft 473 kts 118°
2026-04-29 10:50 41.08204 33.90720 39000 ft 473 kts 118°
2026-04-29 10:51 41.05112 33.98391 39000 ft 473 kts 118°
2026-04-29 10:51 41.02002 34.06110 39000 ft 473 kts 118°
2026-04-29 10:52 40.98909 34.13784 39000 ft 473 kts 118°
2026-04-29 10:52 40.95811 34.21474 39000 ft 473 kts 118°
2026-04-29 10:53 40.92726 34.29127 39000 ft 473 kts 118°
2026-04-29 10:53 40.89627 34.36815 39000 ft 473 kts 118°
2026-04-29 10:54 40.86523 34.44482 39000 ft 473 kts 118°
2026-04-29 10:54 40.83433 34.52140 39000 ft 473 kts 117°
2026-04-29 10:55 40.80342 34.59805 39000 ft 473 kts 117°
2026-04-29 10:55 40.77225 34.67502 39000 ft 473 kts 118°
2026-04-29 10:56 40.74345 34.75265 39013 ft 473 kts 108°
2026-04-29 10:56 40.72424 34.83579 39001 ft 473 kts 107°
2026-04-29 10:57 40.70497 34.91867 39000 ft 473 kts 107°
2026-04-29 10:57 40.68561 35.00149 39000 ft 473 kts 107°
2026-04-29 10:58 40.66616 35.08459 39000 ft 473 kts 107°
2026-04-29 10:58 40.64679 35.16732 39000 ft 473 kts 107°
2026-04-29 10:59 40.62739 35.25022 39000 ft 473 kts 107°
2026-04-29 10:59 40.60806 35.33277 39000 ft 473 kts 107°
2026-04-29 11:00 40.58874 35.41530 39000 ft 473 kts 107°
2026-04-29 11:00 40.56926 35.49850 39000 ft 473 kts 107°
2026-04-29 11:01 40.55001 35.58075 39000 ft 473 kts 107°
2026-04-29 11:01 40.53058 35.66365 39000 ft 473 kts 108°
2026-04-29 11:02 40.51081 35.74629 39000 ft 473 kts 107°
2026-04-29 11:02 40.49143 35.82869 39000 ft 473 kts 107°
2026-04-29 11:03 40.47205 35.91143 39000 ft 473 kts 107°
2026-04-29 11:03 40.45265 35.99428 39000 ft 473 kts 107°
2026-04-29 11:04 40.43335 36.07674 39000 ft 473 kts 107°
2026-04-29 11:04 40.41407 36.15908 39000 ft 473 kts 107°
2026-04-29 11:05 40.39465 36.24204 39000 ft 473 kts 107°
2026-04-29 11:05 40.37529 36.32473 39000 ft 473 kts 107°
2026-04-29 11:06 40.35602 36.40702 39000 ft 473 kts 107°
2026-04-29 11:06 40.33673 36.48944 39000 ft 473 kts 107°
2026-04-29 11:07 40.31739 36.57201 39000 ft 473 kts 107°
2026-04-29 11:07 40.29808 36.65451 39000 ft 473 kts 107°
2026-04-29 11:08 40.27840 36.73676 39000 ft 473 kts 107°
2026-04-29 11:08 40.25903 36.81911 39000 ft 473 kts 107°
2026-04-29 11:09 40.23972 36.90149 39000 ft 473 kts 107°
2026-04-29 11:09 40.22051 36.98356 39000 ft 473 kts 107°
2026-04-29 11:10 40.20120 37.06600 39000 ft 473 kts 107°
2026-04-29 11:10 40.18191 37.14839 39000 ft 473 kts 107°
2026-04-29 11:11 40.16262 37.23077 39000 ft 473 kts 107°
2026-04-29 11:11 40.14344 37.31265 39000 ft 473 kts 107°
2026-04-29 11:12 40.12413 37.39505 39000 ft 474 kts 107°
2026-04-29 11:12 40.10480 37.47745 39000 ft 474 kts 107°
2026-04-29 11:13 40.08548 37.55941 39000 ft 473 kts 108°
2026-04-29 11:13 40.06273 37.64030 39000 ft 474 kts 111°
2026-04-29 11:14 40.03856 37.71997 39000 ft 474 kts 112°
2026-04-29 11:14 40.01440 37.79988 39000 ft 474 kts 111°
2026-04-29 11:15 39.99032 37.87987 39000 ft 474 kts 111°
2026-04-29 11:15 39.96633 37.95962 39000 ft 474 kts 111°
2026-04-29 11:16 39.94230 38.03951 39000 ft 474 kts 111°
2026-04-29 11:16 39.91821 38.11959 39000 ft 474 kts 111°
2026-04-29 11:17 39.89418 38.19941 39000 ft 474 kts 111°
2026-04-29 11:17 39.87011 38.27896 39000 ft 474 kts 111°
2026-04-29 11:18 39.84597 38.35914 39000 ft 474 kts 111°
2026-04-29 11:18 39.82194 38.43899 39000 ft 474 kts 111°
2026-04-29 11:19 39.79808 38.51833 39000 ft 474 kts 111°
2026-04-29 11:19 39.77404 38.59823 39000 ft 474 kts 111°
2026-04-29 11:20 39.75001 38.67771 39000 ft 474 kts 112°
2026-04-29 11:20 39.72570 38.75742 39000 ft 474 kts 111°
2026-04-29 11:21 39.70184 38.83655 39000 ft 474 kts 111°
2026-04-29 11:21 39.67784 38.91634 39000 ft 474 kts 111°
2026-04-29 11:22 39.65390 38.99592 39000 ft 474 kts 111°
2026-04-29 11:22 39.62987 39.07579 39000 ft 474 kts 111°
2026-04-29 11:23 39.60602 39.15507 39000 ft 474 kts 111°
2026-04-29 11:23 39.58217 39.23433 39000 ft 474 kts 111°
2026-04-29 11:24 39.55821 39.31393 39000 ft 474 kts 111°
2026-04-29 11:24 39.53428 39.39340 39000 ft 474 kts 111°
2026-04-29 11:25 39.51062 39.47299 39000 ft 474 kts 108°
2026-04-29 11:25 39.48976 39.55400 39000 ft 474 kts 108°
2026-04-29 11:26 39.45840 39.67485 39000 ft 474 kts 109°
2026-04-29 11:26 39.43708 39.75572 39000 ft 474 kts 109°
2026-04-29 11:27 39.41616 39.83625 39000 ft 474 kts 109°
2026-04-29 11:27 39.39523 39.91697 39000 ft 474 kts 108°
2026-04-29 11:28 39.37422 39.99802 39000 ft 474 kts 108°
2026-04-29 11:28 39.35325 40.07890 39000 ft 474 kts 108°
2026-04-29 11:29 39.33239 40.15925 39000 ft 474 kts 108°
2026-04-29 11:29 39.31158 40.23956 39000 ft 474 kts 109°
2026-04-29 11:30 39.28988 40.31998 39000 ft 474 kts 109°
2026-04-29 11:30 39.26797 40.40025 39000 ft 474 kts 109°
2026-04-29 11:31 39.24606 40.48039 39000 ft 474 kts 109°
2026-04-29 11:31 39.22422 40.56025 39000 ft 474 kts 109°
2026-04-29 11:32 39.20229 40.64045 39000 ft 474 kts 109°
2026-04-29 11:32 39.18011 40.72020 39000 ft 474 kts 110°
2026-04-29 11:33 39.15804 40.80036 39000 ft 474 kts 109°
2026-04-29 11:33 39.13606 40.88065 39000 ft 474 kts 109°
2026-04-29 11:34 39.11430 40.96021 39000 ft 474 kts 109°
2026-04-29 11:34 39.09232 41.04057 39000 ft 474 kts 109°
2026-04-29 11:35 39.07044 41.12059 39000 ft 474 kts 109°
2026-04-29 11:35 39.04873 41.19997 39000 ft 474 kts 109°
2026-04-29 11:36 39.02687 41.27988 39000 ft 474 kts 109°
2026-04-29 11:36 39.00496 41.36001 39000 ft 474 kts 109°
2026-04-29 11:37 38.98308 41.44000 39000 ft 474 kts 109°
2026-04-29 11:37 38.96127 41.51975 39000 ft 474 kts 109°
2026-04-29 11:38 38.94059 41.59536 39000 ft 474 kts 109°
2026-04-29 11:38 38.91872 41.67497 39000 ft 474 kts 110°
2026-04-29 11:39 38.89654 41.75471 39000 ft 474 kts 110°
2026-04-29 11:39 38.87445 41.83473 39000 ft 474 kts 109°
2026-04-29 11:40 38.85252 41.91479 39000 ft 474 kts 109°
2026-04-29 11:40 38.83087 41.99390 39000 ft 474 kts 109°
2026-04-29 11:41 38.80902 42.07381 39000 ft 474 kts 109°
2026-04-29 11:41 38.78706 42.15408 39000 ft 474 kts 109°
2026-04-29 11:42 38.76530 42.23363 39000 ft 474 kts 109°
2026-04-29 11:42 38.74354 42.31320 39000 ft 474 kts 109°
2026-04-29 11:43 38.72178 42.39278 39000 ft 474 kts 109°
2026-04-29 11:43 38.70014 42.47188 39000 ft 474 kts 109°
2026-04-29 11:44 38.67833 42.55161 39000 ft 474 kts 109°
2026-04-29 11:44 38.65657 42.63117 39000 ft 474 kts 109°
2026-04-29 11:45 38.63454 42.71051 39000 ft 474 kts 110°
2026-04-29 11:45 38.61253 42.79044 39000 ft 474 kts 109°
2026-04-29 11:46 38.59083 42.86969 39000 ft 474 kts 109°
2026-04-29 11:46 38.56899 42.94954 39000 ft 474 kts 109°
2026-04-29 11:47 38.54727 43.02894 39000 ft 474 kts 109°
2026-04-29 11:47 38.52561 43.10813 39000 ft 474 kts 109°
2026-04-29 11:48 38.50379 43.18788 39000 ft 474 kts 109°
2026-04-29 11:48 38.48210 43.26707 39000 ft 474 kts 109°
2026-04-29 11:49 38.45789 43.34557 39011 ft 474 kts 118°
2026-04-29 11:49 38.42557 43.41871 39000 ft 474 kts 119°
2026-04-29 11:50 38.39342 43.49191 39000 ft 474 kts 119°
2026-04-29 11:50 38.36132 43.56517 39000 ft 474 kts 119°
2026-04-29 11:51 38.32910 43.63872 39000 ft 474 kts 118°
2026-04-29 11:51 38.29680 43.71169 39000 ft 474 kts 119°
2026-04-29 11:52 38.26477 43.78512 39000 ft 474 kts 118°
2026-04-29 11:52 38.23396 43.85863 39000 ft 474 kts 118°
2026-04-29 11:53 38.20293 43.93268 39000 ft 474 kts 118°
2026-04-29 11:53 38.17178 44.00699 39000 ft 474 kts 118°
2026-04-29 11:54 38.14091 44.08062 39000 ft 474 kts 118°
2026-04-29 11:54 38.10997 44.15442 39000 ft 474 kts 118°
2026-04-29 11:55 38.07901 44.22823 39000 ft 474 kts 118°
2026-04-29 11:55 38.04816 44.30239 39000 ft 474 kts 115°
2026-04-29 11:56 38.02016 44.37820 39000 ft 474 kts 115°
2026-04-29 11:56 37.99232 44.45358 39000 ft 474 kts 115°
2026-04-29 11:57 37.96421 44.52957 39000 ft 474 kts 115°
2026-04-29 11:57 37.93629 44.60499 39000 ft 474 kts 115°
2026-04-29 11:58 37.90826 44.68022 39000 ft 474 kts 116°
2026-04-29 11:58 37.87993 44.75597 39000 ft 474 kts 115°
2026-04-29 11:59 37.85159 44.83136 39000 ft 474 kts 115°
2026-04-29 11:59 37.82329 44.90631 39000 ft 474 kts 115°
2026-04-29 12:00 37.79483 44.98164 39000 ft 474 kts 115°
2026-04-29 12:00 37.76644 45.05680 39000 ft 474 kts 115°
2026-04-29 12:01 37.73799 45.13206 39000 ft 474 kts 115°
2026-04-29 12:01 37.70966 45.20704 39000 ft 474 kts 115°
2026-04-29 12:02 37.68138 45.28189 39000 ft 474 kts 115°
2026-04-29 12:02 37.65296 45.35710 39000 ft 474 kts 115°
2026-04-29 12:03 37.62460 45.43214 39000 ft 474 kts 115°
2026-04-29 12:03 37.59639 45.50677 39000 ft 474 kts 115°
2026-04-29 12:04 37.56785 45.58223 39000 ft 474 kts 115°
2026-04-29 12:04 37.53939 45.65673 38998 ft 474 kts 120°
2026-04-29 12:05 37.51966 45.68960 39033 ft 474 kts 137°
2026-04-29 12:05 37.49365 45.71571 39026 ft 475 kts 146°
2026-04-29 12:05 37.43802 45.75936 39001 ft 474 kts 149°
2026-04-29 12:06 37.38165 45.80225 39000 ft 474 kts 149°
2026-04-29 12:06 37.32511 45.84522 39000 ft 474 kts 149°
2026-04-29 12:07 37.26893 45.88813 39000 ft 474 kts 147°
2026-04-29 12:07 37.21425 45.93375 39000 ft 474 kts 146°
2026-04-29 12:08 37.15928 45.97971 39000 ft 474 kts 146°
2026-04-29 12:08 37.10458 46.02538 39000 ft 474 kts 146°
2026-04-29 12:09 37.05000 46.07096 39000 ft 474 kts 146°
2026-04-29 12:09 36.99513 46.11678 39000 ft 474 kts 146°
2026-04-29 12:10 36.94044 46.16243 39000 ft 474 kts 146°
2026-04-29 12:10 36.88578 46.20806 39000 ft 474 kts 146°
2026-04-29 12:11 36.83095 46.25373 39000 ft 474 kts 146°
2026-04-29 12:11 36.77642 46.29924 39000 ft 474 kts 146°
2026-04-29 12:12 36.72151 46.34508 39000 ft 474 kts 146°
2026-04-29 12:12 36.66689 46.39068 39000 ft 474 kts 146°
2026-04-29 12:13 36.61236 46.43620 39000 ft 474 kts 146°
2026-04-29 12:13 36.55770 46.48180 39000 ft 474 kts 146°
2026-04-29 12:14 36.50289 46.52744 39000 ft 474 kts 146°
2026-04-29 12:14 36.44819 46.57257 39000 ft 474 kts 146°
2026-04-29 12:15 36.39327 46.61761 39000 ft 474 kts 146°
2026-04-29 12:15 36.33839 46.66251 39000 ft 474 kts 147°
2026-04-29 12:16 36.28333 46.70725 39000 ft 474 kts 147°
2026-04-29 12:16 36.22816 46.75242 39000 ft 474 kts 147°
2026-04-29 12:17 36.17341 46.79729 39000 ft 474 kts 147°
2026-04-29 12:17 36.11847 46.84233 39000 ft 474 kts 146°
2026-04-29 12:18 36.06371 46.88692 39000 ft 474 kts 147°
2026-04-29 12:18 36.00819 46.93142 39000 ft 474 kts 147°
2026-04-29 12:19 35.95319 46.97536 39000 ft 474 kts 147°
2026-04-29 12:19 35.89801 47.01941 39000 ft 474 kts 147°
2026-04-29 12:20 35.84249 47.06362 39000 ft 474 kts 147°
2026-04-29 12:20 35.78730 47.10765 39000 ft 474 kts 147°
2026-04-29 12:21 35.73193 47.15184 39000 ft 474 kts 147°
2026-04-29 12:21 35.67668 47.19595 39000 ft 474 kts 147°
2026-04-29 12:22 35.62182 47.23975 39000 ft 474 kts 147°
2026-04-29 12:22 35.56643 47.28397 39000 ft 474 kts 147°
2026-04-29 12:23 35.51133 47.32795 39000 ft 474 kts 147°
2026-04-29 12:23 35.45629 47.37188 39000 ft 474 kts 147°
2026-04-29 12:24 35.40097 47.41604 39000 ft 474 kts 147°
2026-04-29 12:24 35.34595 47.45995 39000 ft 474 kts 147°
2026-04-29 12:25 35.29069 47.50406 39000 ft 474 kts 147°
2026-04-29 12:26 35.20780 47.57020 39000 ft 474 kts 146°
2026-04-29 12:26 35.15290 47.61400 39000 ft 474 kts 146°
2026-04-29 12:27 35.09771 47.65791 39000 ft 474 kts 147°
2026-04-29 12:27 35.04216 47.70168 39000 ft 474 kts 147°
2026-04-29 12:28 34.98685 47.74471 39000 ft 474 kts 148°
2026-04-29 12:28 34.93113 47.78792 39000 ft 474 kts 148°
2026-04-29 12:29 34.87542 47.83104 39000 ft 474 kts 148°
2026-04-29 12:29 34.81992 47.87396 39000 ft 474 kts 147°
2026-04-29 12:30 34.76407 47.91722 39000 ft 474 kts 147°
2026-04-29 12:30 34.70851 47.96027 39000 ft 474 kts 147°
2026-04-29 12:31 34.65309 48.00321 39000 ft 474 kts 147°
2026-04-29 12:31 34.59761 48.04620 39000 ft 474 kts 147°
2026-04-29 12:32 34.54200 48.08929 39000 ft 474 kts 147°
2026-04-29 12:32 34.48674 48.13210 39000 ft 474 kts 147°
2026-04-29 12:33 34.43128 48.17507 39000 ft 474 kts 147°
2026-04-29 12:33 34.37589 48.21799 39000 ft 474 kts 147°
2026-04-29 12:34 34.32047 48.26093 39000 ft 474 kts 147°
2026-04-29 12:34 34.26513 48.30381 39000 ft 474 kts 147°
2026-04-29 12:35 34.20940 48.34699 39000 ft 474 kts 147°
2026-04-29 12:35 34.15406 48.38987 39000 ft 474 kts 147°
2026-04-29 12:36 34.09860 48.43284 39000 ft 474 kts 147°
2026-04-29 12:36 34.04331 48.47568 39000 ft 474 kts 147°
2026-04-29 12:37 33.98786 48.51864 39000 ft 474 kts 147°
2026-04-29 12:37 33.93247 48.56156 39000 ft 474 kts 147°
2026-04-29 12:38 33.87701 48.60448 39000 ft 474 kts 147°
2026-04-29 12:38 33.82157 48.64735 39000 ft 474 kts 147°
2026-04-29 12:39 33.76624 48.68985 39000 ft 474 kts 147°
2026-04-29 12:39 33.71082 48.73268 39000 ft 474 kts 147°
2026-04-29 12:40 33.65553 48.77551 39000 ft 474 kts 147°
2026-04-29 12:40 33.60015 48.81841 39000 ft 474 kts 147°
2026-04-29 12:41 33.54464 48.86142 39000 ft 474 kts 147°
2026-04-29 12:41 33.48947 48.90417 39000 ft 474 kts 147°
2026-04-29 12:42 33.43411 48.94706 39000 ft 474 kts 147°
2026-04-29 12:42 33.37867 48.99001 39000 ft 474 kts 147°
2026-04-29 12:43 33.32338 49.03285 39000 ft 474 kts 147°
2026-04-29 12:43 33.26931 49.07692 39001 ft 474 kts 144°
2026-04-29 12:44 33.21498 49.12231 39000 ft 474 kts 145°
2026-04-29 12:44 33.16099 49.16701 39000 ft 474 kts 145°
2026-04-29 12:45 33.10685 49.21176 39000 ft 474 kts 145°
2026-04-29 12:45 33.05293 49.25632 39000 ft 474 kts 145°
2026-04-29 12:46 32.99859 49.30123 39000 ft 474 kts 145°
2026-04-29 12:46 32.94446 49.34597 39000 ft 474 kts 145°
2026-04-29 12:47 32.89021 49.39079 39000 ft 474 kts 145°
2026-04-29 12:47 32.83622 49.43527 39000 ft 474 kts 145°
2026-04-29 12:48 32.78205 49.48000 39000 ft 474 kts 145°
2026-04-29 12:48 32.72793 49.52473 39000 ft 474 kts 145°
2026-04-29 12:49 32.67373 49.56951 39000 ft 474 kts 145°
2026-04-29 12:49 32.61969 49.61417 39000 ft 474 kts 144°
2026-04-29 12:50 32.56565 49.65880 39000 ft 474 kts 146°
2026-04-29 12:50 32.51153 49.70316 39000 ft 474 kts 145°
2026-04-29 12:51 32.45757 49.74767 39000 ft 474 kts 145°
2026-04-29 12:51 32.40337 49.79245 38999 ft 474 kts 145°
2026-04-29 12:52 32.34929 49.83715 39000 ft 474 kts 145°
2026-04-29 12:52 32.29561 49.88150 39000 ft 474 kts 145°
2026-04-29 12:53 32.24152 49.92620 39000 ft 474 kts 145°
2026-04-29 12:53 32.18745 49.97088 39000 ft 474 kts 145°
2026-04-29 12:54 32.13312 50.01578 39000 ft 474 kts 145°
2026-04-29 12:54 32.07913 50.06039 39000 ft 474 kts 145°
2026-04-29 12:55 32.02519 50.10498 39000 ft 474 kts 145°
2026-04-29 12:55 31.97141 50.14941 39000 ft 474 kts 145°
2026-04-29 12:56 31.91754 50.19393 39000 ft 474 kts 145°
2026-04-29 12:56 31.86356 50.23845 39000 ft 474 kts 145°
2026-04-29 12:57 31.80944 50.28311 39000 ft 474 kts 144°
2026-04-29 12:57 31.75567 50.32754 39000 ft 474 kts 144°
2026-04-29 12:58 31.70161 50.37221 39000 ft 474 kts 144°
2026-04-29 12:58 31.64784 50.41664 39000 ft 474 kts 144°
2026-04-29 12:59 31.59379 50.46131 39000 ft 474 kts 144°
2026-04-29 12:59 31.54019 50.50561 39000 ft 474 kts 144°
2026-04-29 13:00 31.48603 50.55036 39000 ft 474 kts 144°
2026-04-29 13:00 31.43226 50.59479 39000 ft 474 kts 144°
2026-04-29 13:01 31.37843 50.63928 39000 ft 474 kts 144°
2026-04-29 13:01 31.32447 50.68358 39000 ft 474 kts 145°
2026-04-29 13:02 31.27062 50.72793 39000 ft 474 kts 145°
2026-04-29 13:02 31.21677 50.77241 39000 ft 474 kts 145°
2026-04-29 13:03 31.16305 50.81680 39000 ft 474 kts 145°
2026-04-29 13:03 31.10942 50.86112 39000 ft 474 kts 144°
2026-04-29 13:04 31.05554 50.90564 39000 ft 474 kts 144°
2026-04-29 13:04 31.00151 50.95030 39000 ft 474 kts 144°
2026-04-29 13:05 30.94789 50.99461 39000 ft 474 kts 144°
2026-04-29 13:05 30.89426 51.03892 39000 ft 474 kts 144°
2026-04-29 13:06 30.84029 51.08341 39000 ft 474 kts 144°
2026-04-29 13:06 30.78672 51.12765 39000 ft 474 kts 144°
2026-04-29 13:07 30.73283 51.17218 39000 ft 474 kts 144°
2026-04-29 13:07 30.67892 51.21672 39000 ft 474 kts 144°
2026-04-29 13:08 30.62536 51.26099 39000 ft 474 kts 144°
2026-04-29 13:08 30.57171 51.30532 39000 ft 474 kts 144°
2026-04-29 13:09 30.51808 51.34963 39000 ft 474 kts 144°
2026-04-29 13:09 30.46416 51.39416 39000 ft 474 kts 144°
2026-04-29 13:10 30.41010 51.43672 39004 ft 474 kts 154°
2026-04-29 13:10 30.34890 51.46526 39001 ft 474 kts 159°
2026-04-29 13:11 30.28737 51.49241 39000 ft 474 kts 159°
2026-04-29 13:11 30.22590 51.51963 39000 ft 474 kts 159°
2026-04-29 13:12 30.16434 51.54672 39000 ft 474 kts 159°
2026-04-29 13:12 30.10232 51.57381 39000 ft 474 kts 159°
2026-04-29 13:13 30.04083 51.60063 39000 ft 474 kts 159°
2026-04-29 13:13 29.97916 51.62752 39000 ft 474 kts 159°
2026-04-29 13:14 29.91721 51.65452 39000 ft 474 kts 160°
2026-04-29 13:14 29.85566 51.68104 39000 ft 474 kts 159°
2026-04-29 13:15 29.79387 51.70790 39000 ft 474 kts 159°
2026-04-29 13:15 29.73218 51.73479 39000 ft 474 kts 159°
2026-04-29 13:16 29.67058 51.76165 39000 ft 474 kts 159°
2026-04-29 13:16 29.60915 51.78844 39000 ft 474 kts 159°
2026-04-29 13:17 29.54727 51.81543 39000 ft 474 kts 159°
2026-04-29 13:17 29.48550 51.84237 39000 ft 474 kts 159°
2026-04-29 13:18 29.42406 51.86916 39000 ft 474 kts 159°
2026-04-29 13:18 29.36271 51.89591 39000 ft 474 kts 159°
2026-04-29 13:19 29.30116 51.92275 39000 ft 474 kts 159°
2026-04-29 13:19 29.23972 51.94954 39000 ft 475 kts 159°
2026-04-29 13:20 29.17780 51.97654 39000 ft 475 kts 159°
2026-04-29 13:20 29.11647 52.00329 39000 ft 475 kts 159°
2026-04-29 13:21 29.05506 52.03006 39000 ft 475 kts 159°
2026-04-29 13:21 28.99360 52.05686 39000 ft 475 kts 159°
2026-04-29 13:22 28.93181 52.08379 39000 ft 475 kts 159°
2026-04-29 13:22 28.87311 52.11676 39012 ft 475 kts 147°
2026-04-29 13:23 28.81738 52.15731 39000 ft 474 kts 147°
2026-04-29 13:23 28.76183 52.19743 39000 ft 475 kts 147°
2026-04-29 13:24 28.70609 52.23763 39000 ft 475 kts 147°
2026-04-29 13:24 28.65055 52.27767 39000 ft 475 kts 147°
2026-04-29 13:25 28.59508 52.31765 39000 ft 475 kts 147°
2026-04-29 13:25 28.51169 52.37759 39000 ft 475 kts 148°
2026-04-29 13:26 28.45567 52.41738 39000 ft 475 kts 148°
2026-04-29 13:26 28.39997 52.45686 39000 ft 475 kts 148°
2026-04-29 13:27 28.34391 52.49657 39000 ft 475 kts 148°
2026-04-29 13:27 28.28790 52.53626 39000 ft 475 kts 148°
2026-04-29 13:28 28.23187 52.57595 39000 ft 475 kts 148°
2026-04-29 13:28 28.17639 52.61525 39000 ft 475 kts 148°
2026-04-29 13:29 28.12045 52.65487 39000 ft 475 kts 148°
2026-04-29 13:29 28.06450 52.69423 39000 ft 475 kts 148°
2026-04-29 13:30 28.00862 52.73375 39000 ft 475 kts 148°
2026-04-29 13:30 27.95281 52.77328 39000 ft 475 kts 148°
2026-04-29 13:31 27.89687 52.81291 39000 ft 475 kts 148°
2026-04-29 13:31 27.84095 52.85243 39000 ft 475 kts 148°
2026-04-29 13:32 27.78488 52.89213 39000 ft 475 kts 148°
2026-04-29 13:32 27.72934 52.93148 39000 ft 475 kts 148°
2026-04-29 13:33 27.67343 52.97108 39000 ft 475 kts 148°
2026-04-29 13:33 27.61748 53.01071 39000 ft 475 kts 148°
2026-04-29 13:34 27.56184 53.05013 39000 ft 475 kts 148°
2026-04-29 13:34 27.50599 53.08970 39000 ft 475 kts 148°
2026-04-29 13:35 27.45037 53.12909 39000 ft 475 kts 148°
2026-04-29 13:35 27.39451 53.16866 39000 ft 475 kts 148°
2026-04-29 13:36 27.34141 53.21278 39004 ft 475 kts 140°
2026-04-29 13:36 27.29058 53.25987 39000 ft 475 kts 140°
2026-04-29 13:37 27.23971 53.30666 39000 ft 475 kts 140°
2026-04-29 13:37 27.18874 53.35348 39000 ft 475 kts 140°
2026-04-29 13:38 27.13832 53.39979 39000 ft 475 kts 140°
2026-04-29 13:38 27.08739 53.44656 39000 ft 475 kts 140°
2026-04-29 13:39 27.03659 53.49322 39000 ft 475 kts 140°
2026-04-29 13:39 26.98546 53.54018 39000 ft 475 kts 140°
2026-04-29 13:40 26.93459 53.58689 39000 ft 475 kts 140°
2026-04-29 13:40 26.88345 53.63382 39000 ft 475 kts 140°
2026-04-29 13:41 26.83238 53.68041 39000 ft 475 kts 141°
2026-04-29 13:41 26.78129 53.72718 39000 ft 475 kts 141°
2026-04-29 13:42 26.73035 53.77395 39000 ft 475 kts 141°
2026-04-29 13:42 26.67928 53.82085 39000 ft 475 kts 141°
2026-04-29 13:43 26.62849 53.86750 39000 ft 475 kts 141°
2026-04-29 13:43 26.57775 53.91410 39000 ft 475 kts 141°
2026-04-29 13:44 26.52702 53.96078 39000 ft 475 kts 140°
2026-04-29 13:44 26.47629 54.00845 39000 ft 475 kts 140°
2026-04-29 13:45 26.42605 54.05561 39000 ft 475 kts 140°
2026-04-29 13:45 26.37544 54.10307 39000 ft 475 kts 140°
2026-04-29 13:46 26.32490 54.15049 39000 ft 475 kts 140°
2026-04-29 13:46 26.27464 54.19762 39000 ft 475 kts 140°
2026-04-29 13:47 26.22411 54.24502 39000 ft 475 kts 140°
2026-04-29 13:47 26.17366 54.29234 39000 ft 475 kts 140°
2026-04-29 13:48 26.12342 54.33946 39000 ft 475 kts 140°
2026-04-29 13:48 26.07310 54.38665 39000 ft 475 kts 140°
2026-04-29 13:49 26.02250 54.43410 39000 ft 475 kts 140°
2026-04-29 13:49 25.97209 54.48135 39000 ft 475 kts 140°
2026-04-29 13:50 25.92172 54.52854 39000 ft 475 kts 139°
2026-04-29 13:50 25.87530 54.58026 39001 ft 475 kts 134°
2026-04-29 13:51 25.82938 54.63304 39000 ft 475 kts 134°
2026-04-29 13:51 25.78503 54.68246 39001 ft 475 kts 136°
2026-04-29 13:52 25.73722 54.73264 39000 ft 475 kts 136°
2026-04-29 13:52 25.68925 54.78299 39000 ft 475 kts 136°
2026-04-29 13:53 25.64125 54.83339 39000 ft 475 kts 136°
2026-04-29 13:53 25.60114 54.89076 39022 ft 476 kts 117°
2026-04-29 13:54 25.57210 54.95611 39001 ft 475 kts 116°
2026-04-29 13:54 25.54336 55.02183 39000 ft 475 kts 116°
2026-04-29 13:55 25.51457 55.08769 39000 ft 475 kts 116°
2026-04-29 13:55 25.48583 55.15343 39000 ft 475 kts 116°
2026-04-29 13:56 25.45687 55.21856 38998 ft 475 kts 121°
2026-04-29 13:56 25.43617 55.24719 39031 ft 475 kts 137°
2026-04-29 13:56 25.41083 55.27008 39018 ft 475 kts 144°
2026-04-29 13:57 25.35639 55.31163 39001 ft 475 kts 146°
2026-04-29 13:57 25.30194 55.35240 39000 ft 475 kts 146°
2026-04-29 13:58 25.25014 55.39113 39000 ft 475 kts 146°
2026-04-29 13:58 25.19824 55.43563 39018 ft 475 kts 133°
2026-04-29 13:59 25.15397 55.48957 39001 ft 475 kts 132°
2026-04-29 13:59 25.10950 55.54346 39000 ft 475 kts 132°
2026-04-29 14:00 25.06502 55.59734 39000 ft 475 kts 132°
2026-04-29 14:00 25.02048 55.65102 39000 ft 475 kts 133°
2026-04-29 14:01 24.97582 55.70449 39000 ft 475 kts 133°
2026-04-29 14:01 24.93126 55.75808 39000 ft 475 kts 133°
2026-04-29 14:02 24.88676 55.81162 39000 ft 475 kts 133°
2026-04-29 14:02 24.84223 55.86512 39000 ft 475 kts 132°
2026-04-29 14:03 24.79770 55.91875 38821 ft 476 kts 132°
2026-04-29 14:03 24.75120 55.96949 38476 ft 475 kts 137°
2026-04-29 14:04 24.72711 55.99423 38150 ft 474 kts 137°
2026-04-29 14:04 24.70305 56.01898 37776 ft 473 kts 137°
2026-04-29 14:04 24.67907 56.04369 37404 ft 473 kts 137°
2026-04-29 14:04 24.65504 56.06843 37032 ft 473 kts 137°
2026-04-29 14:05 24.63131 56.09286 36664 ft 473 kts 137°
2026-04-29 14:05 24.60715 56.11773 36290 ft 473 kts 137°
2026-04-29 14:05 24.58319 56.14235 35918 ft 473 kts 137°
2026-04-29 14:05 24.56058 56.16804 35555 ft 474 kts 131°
2026-04-29 14:06 24.53886 56.19581 35182 ft 475 kts 130°
2026-04-29 14:06 24.51754 56.22307 34813 ft 475 kts 130°
2026-04-29 14:06 24.49573 56.25085 34484 ft 475 kts 130°
2026-04-29 14:06 24.47411 56.27836 34189 ft 476 kts 130°
2026-04-29 14:07 24.45274 56.30553 33700 ft 472 kts 130°
2026-04-29 14:07 24.43135 56.33271 33149 ft 468 kts 130°
2026-04-29 14:07 24.41031 56.35946 32585 ft 463 kts 130°
2026-04-29 14:07 24.38933 56.38612 32014 ft 459 kts 130°
2026-04-29 14:08 24.36869 56.41235 31450 ft 455 kts 130°
2026-04-29 14:08 24.34838 56.43816 30893 ft 451 kts 130°
2026-04-29 14:08 24.32780 56.46430 30329 ft 447 kts 130°
2026-04-29 14:08 24.30791 56.48954 29784 ft 443 kts 130°
2026-04-29 14:09 24.28887 56.51621 29256 ft 438 kts 126°
2026-04-29 14:09 24.27116 56.54295 28753 ft 435 kts 126°
2026-04-29 14:09 24.25347 56.56963 28251 ft 432 kts 126°
2026-04-29 14:09 24.23607 56.59582 27751 ft 419 kts 126°
2026-04-29 14:10 24.21922 56.62116 27268 ft 405 kts 126°
2026-04-29 14:10 24.20291 56.64568 26804 ft 391 kts 126°
2026-04-29 14:10 24.18716 56.66925 26370 ft 378 kts 126°
2026-04-29 14:10 24.17188 56.69206 25820 ft 369 kts 126°
2026-04-29 14:11 24.15688 56.71455 25283 ft 360 kts 126°
2026-04-29 14:11 24.14235 56.73636 24751 ft 353 kts 126°
2026-04-29 14:11 24.12807 56.75782 24217 ft 345 kts 126°
2026-04-29 14:11 24.11412 56.77879 23686 ft 339 kts 126°
2026-04-29 14:12 24.10026 56.79962 23149 ft 333 kts 126°
2026-04-29 14:12 24.08700 56.81956 22626 ft 328 kts 126°
2026-04-29 14:12 24.07365 56.83962 22095 ft 323 kts 126°
2026-04-29 14:12 24.06048 56.85942 21565 ft 320 kts 126°
2026-04-29 14:13 24.04746 56.87897 21037 ft 316 kts 126°
2026-04-29 14:13 24.03468 56.89814 20514 ft 313 kts 126°
2026-04-29 14:13 24.02186 56.91734 19985 ft 310 kts 126°
2026-04-29 14:13 24.00923 56.93622 19459 ft 308 kts 126°
2026-04-29 14:14 23.99674 56.95489 18936 ft 305 kts 126°
2026-04-29 14:14 23.98423 56.97356 18408 ft 303 kts 126°
2026-04-29 14:14 23.97200 56.99181 17889 ft 301 kts 126°
2026-04-29 14:14 23.95961 57.01031 17359 ft 298 kts 126°
2026-04-29 14:15 23.94751 57.02836 16838 ft 296 kts 126°
2026-04-29 14:15 23.93540 57.04643 16312 ft 294 kts 126°
2026-04-29 14:15 23.92333 57.06443 15784 ft 292 kts 126°
2026-04-29 14:15 23.91137 57.08227 15258 ft 290 kts 126°
2026-04-29 14:16 23.89953 57.09989 14878 ft 283 kts 126°
2026-04-29 14:16 23.88787 57.11721 14338 ft 285 kts 126°
2026-04-29 14:16 23.87618 57.13455 13792 ft 285 kts 126°
2026-04-29 14:16 23.86450 57.15188 13245 ft 284 kts 126°
2026-04-29 14:17 23.85280 57.16927 12696 ft 284 kts 126°
2026-04-29 14:17 23.84113 57.18660 12147 ft 283 kts 126°
2026-04-29 14:17 23.82960 57.20374 11604 ft 283 kts 126°
2026-04-29 14:17 23.81796 57.22104 11054 ft 282 kts 126°
2026-04-29 14:18 23.80634 57.23832 10504 ft 282 kts 126°
2026-04-29 14:18 23.79475 57.25554 9955 ft 282 kts 126°
2026-04-29 14:18 23.78330 57.27256 9412 ft 281 kts 126°
2026-04-29 14:18 23.77175 57.28973 8863 ft 281 kts 126°
2026-04-29 14:19 23.76021 57.30689 8313 ft 280 kts 126°
2026-04-29 14:19 23.74866 57.32405 7762 ft 280 kts 126°
2026-04-29 14:19 23.73726 57.34100 7208 ft 276 kts 126°
2026-04-29 14:19 23.72632 57.35726 6639 ft 262 kts 125°
2026-04-29 14:20 23.71833 57.37457 6273 ft 244 kts 110°
2026-04-29 14:20 23.71242 57.39202 6167 ft 245 kts 110°
2026-04-29 14:20 23.70657 57.40932 6042 ft 244 kts 110°
2026-04-29 14:20 23.70067 57.42671 5916 ft 243 kts 110°
2026-04-29 14:21 23.69482 57.44395 5791 ft 243 kts 110°
2026-04-29 14:21 23.68896 57.46119 5667 ft 242 kts 110°
2026-04-29 14:21 23.68308 57.47847 5541 ft 242 kts 110°
2026-04-29 14:21 23.67728 57.49550 5418 ft 241 kts 110°
2026-04-29 14:22 23.67142 57.51271 5293 ft 241 kts 110°
2026-04-29 14:22 23.66559 57.52984 5254 ft 240 kts 110°
2026-04-29 14:22 23.65972 57.54707 5249 ft 241 kts 110°
2026-04-29 14:22 23.65393 57.56407 5247 ft 241 kts 110°
2026-04-29 14:23 23.64809 57.58121 5247 ft 241 kts 110°
2026-04-29 14:23 23.64222 57.59844 5247 ft 241 kts 110°
2026-04-29 14:23 23.63642 57.61548 5247 ft 241 kts 110°
2026-04-29 14:23 23.63055 57.63271 5247 ft 241 kts 110°
2026-04-29 14:24 23.62474 57.64976 5247 ft 241 kts 110°
2026-04-29 14:24 23.61881 57.66701 5247 ft 241 kts 111°
2026-04-29 14:24 23.61293 57.68410 5247 ft 241 kts 110°
2026-04-29 14:24 23.60711 57.70108 5247 ft 241 kts 110°
2026-04-29 14:25 23.60127 57.71817 5247 ft 241 kts 110°
2026-04-29 14:25 23.59537 57.73549 5247 ft 241 kts 110°
2026-04-29 14:25 23.58955 57.75258 5247 ft 241 kts 110°
2026-04-29 14:25 23.58379 57.76948 5247 ft 241 kts 110°
2026-04-29 14:26 23.57794 57.78675 5247 ft 241 kts 108°
2026-04-29 14:26 23.57544 57.80464 5258 ft 241 kts 90°
2026-04-29 14:26 23.57560 57.82310 5249 ft 241 kts 89°
2026-04-29 14:26 23.57587 57.84124 5247 ft 241 kts 89°
2026-04-29 14:27 23.57612 57.85954 5247 ft 241 kts 89°
2026-04-29 14:27 23.57635 57.87779 5247 ft 241 kts 89°
2026-04-29 14:27 23.57680 57.89613 5247 ft 241 kts 87°
2026-04-29 14:28 23.57874 57.93243 5251 ft 241 kts 84°
2026-04-29 14:28 23.58049 57.95054 5252 ft 241 kts 84°
2026-04-29 14:28 23.58214 57.96883 5232 ft 242 kts 84°
2026-04-29 14:28 23.58372 57.98699 4952 ft 241 kts 84°
2026-04-29 14:29 23.58526 58.00509 4650 ft 236 kts 85°
2026-04-29 14:29 23.58673 58.02271 4344 ft 232 kts 85°
2026-04-29 14:29 23.58816 58.03993 4036 ft 228 kts 85°
2026-04-29 14:29 23.58958 58.05725 3722 ft 225 kts 85°
2026-04-29 14:30 23.59097 58.07408 3413 ft 222 kts 85°
2026-04-29 14:30 23.59232 58.09056 3110 ft 219 kts 85°
2026-04-29 14:30 23.59367 58.10708 2804 ft 216 kts 85°
2026-04-29 14:30 23.59499 58.12325 2529 ft 211 kts 85°
2026-04-29 14:31 23.59623 58.13848 2275 ft 190 kts 85°
2026-04-29 14:31 23.59730 58.15164 1996 ft 158 kts 85°
2026-04-29 14:31 23.59825 58.16340 1762 ft 154 kts 85°
2026-04-29 14:31 23.59919 58.17501 1559 ft 153 kts 85°
2026-04-29 14:32 23.60012 58.18650 1355 ft 153 kts 85°
2026-04-29 14:32 23.60107 58.19819 1145 ft 153 kts 85°
2026-04-29 14:32 23.60200 58.20966 940 ft 152 kts 85°
2026-04-29 14:32 23.60292 58.22112 735 ft 152 kts 85°
2026-04-29 14:33 23.60385 58.23254 532 ft 151 kts 85°
2026-04-29 14:33 23.60477 58.24394 330 ft 151 kts 85°
2026-04-29 14:33 23.60569 58.25541 129 ft 150 kts 85°
2026-04-29 14:33 23.60658 58.26642 36 ft 138 kts 85°
2026-04-29 14:34 23.60733 58.27589 36 ft 106 kts 85°
2026-04-29 14:34 23.60784 58.28235 36 ft 63 kts 85°
2026-04-29 14:34 23.60816 58.28642 36 ft 30 kts 85°
2026-04-29 14:34 23.60831 58.28805 36 ft 22 kts 83°
2026-04-29 14:35 23.60818 58.28996 36 ft 26 kts 128°
2026-04-29 14:35 23.60712 58.29031 36 ft 1 kts 174°
2026-04-29 14:35 23.60704 58.29032 36 ft 6 kts 174°
2026-04-29 14:35 23.60607 58.29019 36 ft 21 kts 217°
2026-04-29 14:36 23.60567 58.28887 36 ft 21 kts 246°
2026-04-29 14:36 23.60462 58.28846 36 ft 1 kts 175°
2026-04-29 14:36 23.60454 58.28847 36 ft 0 kts 175°
2026-04-29 14:37 23.60422 58.28846 36 ft 3 kts 199°
2026-04-29 14:37 23.60394 58.28793 36 ft 11 kts 258°
2026-04-29 14:37 23.60390 58.28760 36 ft 2 kts 263°
2026-04-29 14:37 23.60390 58.28758 36 ft 0 kts 263°
2026-04-29 14:38 23.60390 58.28756 36 ft 0 kts 266°